Location: Newark
(39.0333°N, 125.7500°E)
Time: 03:21:25
(UTC+00:00)

N. Korean satellite - Visible Passes

Search period start: 28 January 2020 00:00
Search period end: 07 February 2020 00:00
Orbit: 454 x 507 km, 97.2° (Epoch: 27 January)

Date Brightness Start Highest point End Pass type
(mag) Time Alt. Az. Time Alt. Az. Time Alt. Az.
28 Jan 6.8 21:46:02 10° N 21:49:30 47° WNW 21:53:00 10° SSW visible
29 Jan 6.7 21:20:26 10° NNE 21:24:03 75° E 21:27:42 10° S visible
30 Jan 9.7 09:29:00 10° SW 09:31:25 18° W 09:33:52 10° NW visible
30 Jan 8.4 20:55:12 10° NNE 20:58:31 33° E 21:01:50 10° SSE visible
31 Jan 9.7 20:30:34 10° NE 20:32:53 16° E 20:35:12 10° SE visible
31 Jan 7.5 22:03:08 10° NNW 22:06:17 28° WNW 22:09:27 10° SW visible
01 Feb 6.5 21:37:17 10° N 21:40:53 62° WNW 21:44:31 10° SSW visible
02 Feb 10.2 09:47:24 10° WSW 09:48:23 11° W 09:49:22 10° WNW visible
02 Feb 7.3 21:11:48 10° NNE 21:15:24 57° E 21:19:01 10° S visible
03 Feb 8.9 20:46:43 10° NE 20:49:50 26° E 20:52:57 10° SSE visible
04 Feb 10.0 20:22:29 10° ENE 20:24:10 13° E 20:25:52 10° ESE visible
04 Feb 7.2 21:54:17 10° N 21:57:40 36° WNW 22:01:04 10° SW visible
05 Feb 6.5 21:28:33 10° N 21:32:14 82° WNW 21:35:56 10° SSW visible
06 Feb 9.9 09:37:40 10° SW 09:39:37 14° W 09:41:34 10° WNW visible
06 Feb 7.9 21:03:11 10° NNE 21:06:43 43° E 21:10:15 10° S visible
